FJI252 NSFA-NFFN

Flight info

Callsign FJI252
Flight time N/A
Altitude 36000
Route UVUTI1R UVUTI R453 NN
Aircraft B38M/M-SDE1FGHILORVWXY/HB1

Departure

Time N/A
Airport Faleolo International Airport (NSFA)

Arrival

Time 2026-04-30 06:31
Airport Nadi International Airport (NFFN)
Time Latitude Longitude Altitude Speed Heading
2026-04-30 05:41 -16.12897 -177.93065 35971 ft 423 kts 248°
2026-04-30 05:41 -16.15184 -177.98721 35930 ft 423 kts 250°
2026-04-30 05:42 -16.17347 -178.04435 35945 ft 425 kts 250°
2026-04-30 05:42 -16.19470 -178.10166 35929 ft 424 kts 250°
2026-04-30 05:43 -16.21587 -178.15901 35941 ft 425 kts 250°
2026-04-30 05:43 -16.23702 -178.21638 35943 ft 425 kts 250°
2026-04-30 05:44 -16.25816 -178.27379 35941 ft 425 kts 250°
2026-04-30 05:44 -16.27934 -178.33118 35941 ft 425 kts 250°
2026-04-30 05:45 -16.30049 -178.38854 35944 ft 425 kts 250°
2026-04-30 05:45 -16.32165 -178.44596 35944 ft 425 kts 250°
2026-04-30 05:46 -16.34279 -178.50340 35943 ft 426 kts 251°
2026-04-30 05:46 -16.36390 -178.56081 35939 ft 424 kts 251°
2026-04-30 05:47 -16.38495 -178.61809 35947 ft 424 kts 251°
2026-04-30 05:47 -16.40597 -178.67537 35946 ft 423 kts 251°
2026-04-30 05:48 -16.42698 -178.73266 35948 ft 424 kts 251°
2026-04-30 05:48 -16.44796 -178.78994 35949 ft 423 kts 251°
2026-04-30 05:49 -16.46895 -178.84728 35950 ft 424 kts 251°
2026-04-30 05:49 -16.48980 -178.90428 35949 ft 424 kts 251°
2026-04-30 05:50 -16.51093 -178.96214 35953 ft 424 kts 251°
2026-04-30 05:50 -16.53172 -179.01911 35953 ft 424 kts 251°
2026-04-30 05:51 -16.55270 -179.07664 35949 ft 424 kts 251°
2026-04-30 05:51 -16.57362 -179.13411 35949 ft 424 kts 251°
2026-04-30 05:52 -16.59454 -179.19157 35951 ft 424 kts 251°
2026-04-30 05:52 -16.61544 -179.24908 35952 ft 424 kts 251°
2026-04-30 05:53 -16.63635 -179.30665 35950 ft 425 kts 251°
2026-04-30 05:53 -16.65725 -179.36424 35951 ft 424 kts 251°
2026-04-30 05:54 -16.67811 -179.42182 35955 ft 424 kts 251°
2026-04-30 05:54 -16.69897 -179.47940 35961 ft 424 kts 251°
2026-04-30 05:55 -16.71972 -179.53678 35909 ft 425 kts 251°
2026-04-30 05:55 -16.73707 -179.58479 35954 ft 425 kts 251°
2026-04-30 05:56 -16.75788 -179.64239 35944 ft 423 kts 251°
2026-04-30 05:56 -16.77861 -179.69987 35952 ft 423 kts 251°
2026-04-30 05:57 -16.79934 -179.75737 35946 ft 423 kts 251°
2026-04-30 05:57 -16.82004 -179.81488 35945 ft 423 kts 251°
2026-04-30 05:58 -16.84074 -179.87243 35947 ft 424 kts 251°
2026-04-30 05:58 -16.86142 -179.92998 35960 ft 424 kts 251°
2026-04-30 05:59 -16.88209 -179.98756 35977 ft 423 kts 251°
2026-04-30 05:59 -16.90271 179.95492 35995 ft 423 kts 251°
2026-04-30 06:00 -16.92335 179.89733 35968 ft 423 kts 251°
2026-04-30 06:00 -16.94396 179.83973 35971 ft 424 kts 251°
2026-04-30 06:01 -16.96457 179.78208 35969 ft 423 kts 251°
2026-04-30 06:01 -16.98515 179.72446 35969 ft 424 kts 251°
2026-04-30 06:02 -17.00573 179.66681 35962 ft 423 kts 251°
2026-04-30 06:02 -17.02628 179.60914 35964 ft 423 kts 252°
2026-04-30 06:03 -17.04678 179.55156 35964 ft 422 kts 252°
2026-04-30 06:03 -17.06723 179.49409 35965 ft 421 kts 252°
2026-04-30 06:04 -17.08748 179.43711 35969 ft 421 kts 252°
2026-04-30 06:05 -17.11819 179.35058 35966 ft 421 kts 252°
2026-04-30 06:05 -17.13840 179.29359 35965 ft 421 kts 252°
2026-04-30 06:06 -17.15873 179.23619 35964 ft 421 kts 252°
2026-04-30 06:06 -17.17904 179.17880 35965 ft 421 kts 252°
2026-04-30 06:07 -17.19934 179.12140 35970 ft 417 kts 252°
2026-04-30 06:07 -17.20918 179.09354 35930 ft 401 kts 252°
2026-04-30 06:07 -17.21698 179.06600 35629 ft 392 kts 257°
2026-04-30 06:07 -17.22400 179.03852 35096 ft 391 kts 257°
2026-04-30 06:08 -17.23120 179.01100 34521 ft 393 kts 257°
2026-04-30 06:08 -17.23848 178.98353 34015 ft 392 kts 257°
2026-04-30 06:08 -17.24580 178.95610 33481 ft 391 kts 257°
2026-04-30 06:08 -17.25310 178.92881 32964 ft 389 kts 257°
2026-04-30 06:09 -17.26037 178.90161 32477 ft 387 kts 257°
2026-04-30 06:09 -17.26759 178.87456 32001 ft 385 kts 256°
2026-04-30 06:09 -17.27478 178.84765 31546 ft 383 kts 256°
2026-04-30 06:09 -17.28192 178.82089 31090 ft 381 kts 256°
2026-04-30 06:10 -17.28904 178.79420 30643 ft 380 kts 256°
2026-04-30 06:10 -17.29612 178.76765 30195 ft 379 kts 256°
2026-04-30 06:10 -17.30319 178.74110 29702 ft 378 kts 256°
2026-04-30 06:10 -17.31023 178.71468 29221 ft 376 kts 256°
2026-04-30 06:11 -17.31720 178.68846 28792 ft 373 kts 256°
2026-04-30 06:11 -17.32411 178.66249 28391 ft 369 kts 256°
2026-04-30 06:11 -17.33097 178.63667 27991 ft 367 kts 256°
2026-04-30 06:11 -17.33769 178.61140 27602 ft 364 kts 256°
2026-04-30 06:12 -17.34443 178.58600 27201 ft 361 kts 256°
2026-04-30 06:12 -17.35113 178.56077 26824 ft 359 kts 256°
2026-04-30 06:12 -17.35778 178.53569 26440 ft 357 kts 256°
2026-04-30 06:12 -17.36439 178.51077 26063 ft 354 kts 256°
2026-04-30 06:13 -17.37095 178.48600 25686 ft 352 kts 256°
2026-04-30 06:13 -17.37747 178.46136 25321 ft 351 kts 256°
2026-04-30 06:13 -17.38398 178.43679 24950 ft 349 kts 256°
2026-04-30 06:13 -17.39046 178.41230 24585 ft 351 kts 256°
2026-04-30 06:14 -17.39712 178.38711 24194 ft 366 kts 256°
2026-04-30 06:14 -17.40405 178.36088 23781 ft 381 kts 256°
2026-04-30 06:14 -17.41123 178.33367 23330 ft 395 kts 255°
2026-04-30 06:14 -17.41868 178.30549 22850 ft 409 kts 255°
2026-04-30 06:15 -17.42638 178.27624 22358 ft 424 kts 255°
2026-04-30 06:15 -17.43428 178.24602 21840 ft 436 kts 255°
2026-04-30 06:15 -17.44235 178.21517 21474 ft 441 kts 255°
2026-04-30 06:15 -17.45050 178.18402 21043 ft 445 kts 255°
2026-04-30 06:16 -17.45865 178.15282 20609 ft 444 kts 255°
2026-04-30 06:16 -17.46677 178.12173 20161 ft 442 kts 255°
2026-04-30 06:16 -17.47488 178.09068 19702 ft 441 kts 255°
2026-04-30 06:16 -17.48293 178.05977 19256 ft 439 kts 255°
2026-04-30 06:17 -17.49096 178.02896 18805 ft 437 kts 255°
2026-04-30 06:17 -17.49896 177.99827 18352 ft 436 kts 255°
2026-04-30 06:17 -17.50692 177.96763 17851 ft 435 kts 255°
2026-04-30 06:17 -17.51484 177.93721 17416 ft 433 kts 255°
2026-04-30 06:18 -17.52272 177.90687 16982 ft 430 kts 255°
2026-04-30 06:18 -17.53054 177.87674 16547 ft 427 kts 255°
2026-04-30 06:18 -17.53831 177.84682 16109 ft 425 kts 255°
2026-04-30 06:18 -17.54603 177.81708 15674 ft 422 kts 255°
2026-04-30 06:19 -17.55369 177.78749 15240 ft 419 kts 255°
2026-04-30 06:19 -17.56131 177.75809 14803 ft 417 kts 254°
2026-04-30 06:19 -17.56888 177.72886 14372 ft 414 kts 254°
2026-04-30 06:19 -17.57640 177.69978 13941 ft 412 kts 254°
2026-04-30 06:20 -17.58382 177.67106 13475 ft 406 kts 254°
2026-04-30 06:20 -17.59114 177.64272 13029 ft 399 kts 254°
2026-04-30 06:20 -17.59833 177.61488 12615 ft 393 kts 254°
2026-04-30 06:20 -17.60533 177.58774 12203 ft 378 kts 254°
2026-04-30 06:21 -17.61195 177.56207 11832 ft 362 kts 254°
2026-04-30 06:21 -17.61838 177.53711 11461 ft 348 kts 254°
2026-04-30 06:21 -17.62456 177.51312 11088 ft 334 kts 254°
2026-04-30 06:21 -17.63050 177.49007 10763 ft 321 kts 254°
2026-04-30 06:22 -17.63621 177.46788 10438 ft 310 kts 254°
2026-04-30 06:22 -17.64172 177.44643 10117 ft 299 kts 253°
2026-04-30 06:22 -17.64704 177.42578 9805 ft 289 kts 254°
2026-04-30 06:22 -17.65264 177.40579 9365 ft 283 kts 245°
2026-04-30 06:23 -17.66400 177.38951 8859 ft 276 kts 219°
2026-04-30 06:23 -17.67914 177.37708 8305 ft 276 kts 216°
2026-04-30 06:23 -17.69422 177.36470 7816 ft 274 kts 216°
2026-04-30 06:23 -17.70921 177.35244 7330 ft 273 kts 216°
2026-04-30 06:24 -17.72412 177.34025 6857 ft 271 kts 216°
2026-04-30 06:24 -17.73897 177.32812 6352 ft 271 kts 216°
2026-04-30 06:24 -17.75377 177.31602 5885 ft 268 kts 214°
2026-04-30 06:24 -17.76814 177.30428 5647 ft 256 kts 214°
2026-04-30 06:25 -17.78193 177.29303 5435 ft 245 kts 215°
2026-04-30 06:25 -17.79512 177.28224 5162 ft 237 kts 213°
2026-04-30 06:25 -17.80816 177.27162 4744 ft 238 kts 213°
2026-04-30 06:25 -17.82140 177.26149 4355 ft 233 kts 203°
2026-04-30 06:26 -17.83645 177.25834 4096 ft 214 kts 168°
2026-04-30 06:26 -17.84978 177.26423 4198 ft 207 kts 137°
2026-04-30 06:26 -17.85836 177.27633 4206 ft 211 kts 114°
2026-04-30 06:26 -17.86356 177.29089 3785 ft 213 kts 107°
2026-04-30 06:27 -17.86683 177.30568 3628 ft 201 kts 101°
2026-04-30 06:27 -17.86855 177.31969 3441 ft 189 kts 94°
2026-04-30 06:27 -17.86743 177.33323 3102 ft 184 kts 81°
2026-04-30 06:27 -17.86323 177.34588 2679 ft 186 kts 66°
2026-04-30 06:28 -17.85599 177.35728 2304 ft 186 kts 56°
2026-04-30 06:28 -17.84743 177.36730 1923 ft 182 kts 49°
2026-04-30 06:28 -17.83832 177.37574 1730 ft 166 kts 43°
2026-04-30 06:28 -17.82944 177.38256 1508 ft 153 kts 42°
2026-04-30 06:29 -17.82130 177.38942 1294 ft 152 kts 45°
2026-04-30 06:29 -17.81295 177.39653 1083 ft 153 kts 41°
2026-04-30 06:29 -17.80468 177.40336 873 ft 152 kts 39°
2026-04-30 06:29 -17.79626 177.41020 677 ft 154 kts 38°
2026-04-30 06:30 -17.78772 177.41695 461 ft 154 kts 37°
2026-04-30 06:30 -17.77932 177.42384 239 ft 154 kts 38°
2026-04-30 06:30 -17.77087 177.43066 68 ft 150 kts 37°
2026-04-30 06:30 -17.76358 177.43646 47 ft 101 kts 38°
2026-04-30 06:31 -17.75967 177.43962 48 ft 59 kts 37°
2026-04-30 06:31 -17.75640 177.44226 51 ft 59 kts 37°
2026-04-30 06:31 -17.75331 177.44476 52 ft 48 kts 38°
2026-04-30 06:31 -17.75153 177.44624 53 ft 21 kts 37°
2026-04-30 06:32 -17.75122 177.44743 54 ft 19 kts 105°
2026-04-30 06:32 -17.75157 177.44878 55 ft 18 kts 109°
2026-04-30 06:32 -17.75216 177.44935 50 ft 7 kts 178°
2026-04-30 06:32 -17.75244 177.44955 56 ft 5 kts 98°
2026-04-30 06:33 -17.75250 177.45003 56 ft 8 kts 99°
2026-04-30 06:33 -17.75253 177.45018 56 ft 0 kts 101°